Regional Weather Roundup
Issued by NWS

Home | Current Version | Previous Version | Text Only | Print | Product List | Glossary Off
Versions: 1 2 3 4 5 6 7 8 9 10 11 12 13 14 15 16 17 18 19 20 21 22 23 24 25 26 27 28 29 30 31 32 33 34 35 36 37 38 39 40 41 42 43 44 45 46 47 48 49 50

000
ASUS43 KMKX 270700
RWRWI

WISCONSIN REGIONAL WEATHER ROUNDUP
NATIONAL WEATHER SERVICE MILWAUKEE/SULLIVAN WI
200 AM CDT FRI MAY 27 2016

NOTE: "FAIR" INDICATES FEW OR NO CLOUDS BELOW 12,000 FEET WITH NO
SIGNIFICANT WEATHER AND/OR OBSTRUCTIONS TO VISIBILITY.

WIZ001-002-006>008-014>016-023>028-270800-
NORTHWEST WISCONSIN

CITY           SKY/WX    TMP DP  RH WIND       PRES   REMARKS
SUPERIOR ARPT  FOG       46  46 100 CALM      29.87R VSB<1/4
ASHLAND        CLOUDY    47  47 100 S3        29.87R
HAYWARD        MOCLDY    51  49  92 NE5       29.87S
SIREN          PTCLDY    54  51  90 CALM      29.85F
CUMBERLAND     CLOUDY    57  54  88 CALM      29.86F
RICE LAKE      CLOUDY    59  56  90 CALM      29.88S
CHETEK         CLOUDY    58  56  95 SE3       29.86S
LADYSMITH      CLOUDY    57  55  92 NE3       29.89S
EAU CLAIRE     CLOUDY    59  57  93 CALM      29.87R
MENOMONIE      CLOUDY    60  55  82 CALM      29.88R
NEW RICHMOND   CLOUDY    59  52  77 S3        29.87R
OSCEOLA        CLOUDY    59  59 100 CALM      29.87R
$$

WIZ003>005-009-010-017-018-270800-
NORTH CENTRAL WISCONSIN

CITY           SKY/WX    TMP DP  RH WIND       PRES   REMARKS
MANITOWISH WTR NOT AVBL
ARBOR VITAE    CLOUDY    59  57  91 CALM      29.90R
WOODRUFF       CLOUDY    59  57  91 CALM      29.90R
RHINELANDER    PTCLDY    60  56  86 W3        29.90R
EAGLE RIVER      N/A     59  58  96 CALM      29.89R
LAND O LAKES   PTCLDY    57  57 100 CALM      29.90R
PHILLIPS       PTCLDY    57  55  92 CALM      29.89R
TOMAHAWK       MOCLDY    55  53  96 CALM      29.90R
MEDFORD        CLOUDY    58  58  99 CALM      29.89R
MERRILL        CLOUDY    55  55 100 NE3       29.90R
$$

WIZ029-030-035-036-043>047-270800-
CENTRAL WISCONSIN

CITY           SKY/WX    TMP DP  RH WIND       PRES   REMARKS
WAUSAU         CLOUDY    61  58  90 E3        29.87R
MOSINEE        MOCLDY    55  55 100 CALM      29.89S
MARSHFIELD     PTCLDY    60  57  89 CALM      29.88R
STEVENS POINT  MOCLDY    55  54  96 CALM      29.89R
WAUPACA        CLEAR     61  60  99 CALM      29.88R
WAUTOMA        PTCLDY    57  56  96 W3        29.88F
WISC RAPIDS    PTCLDY    59  56  89 CALM      29.89S
CAMP DOUGLAS   FOG       55  55 100 N1        29.87S VSB 1/2
$$

WIZ011>013-019>022-031-037>040-048>050-270800-
NORTHEAST WISCONSIN

CITY           SKY/WX    TMP DP  RH WIND       PRES   REMARKS
ANTIGO         PTCLDY    56  55  95 CALM      29.90S
SHAWANO        CLEAR     61  57  87 CALM      29.88R
OCONTO           N/A    N/A N/A N/A CALM      29.86S
STURGEON BAY   NOT AVBL
GREEN BAY      CLEAR     61  58  90 CALM      29.86S
MANITOWOC      NOT AVBL
APPLETON       CLEAR     63  54  72 CALM      29.86S
CLINTONVILLE   CLEAR     57  55  94 CALM      29.87S
OSHKOSH        PTCLDY    60  55  83 CALM      29.86F
$$

WIZ032>034-041-042-053>061-270800-
SOUTHWEST WISCONSIN

CITY           SKY/WX    TMP DP  RH WIND       PRES   REMARKS
LA CROSSE      CLOUDY    65  61  87 CALM      29.87R
SPARTA         PTCLDY    58  57  97 CALM      29.88S
VIROQUA        CLOUDY    63  61  93 SW3       29.90R
BOSCOBEL       CLOUDY    64  63  96 CALM      29.83F
PRAIRIE DU CHI CLOUDY    66  62  87 N6        29.83F
PLATTEVILLE    CLOUDY    66  60  80 SW8       29.87R
$$

WIZ056-057-062-063-064-067-068-270800-
SOUTH CENTRAL WISCONSIN

CITY           SKY/WX    TMP DP  RH WIND       PRES   REMARKS
REEDSBURG      PTCLDY    62  60  95 CALM      29.87S
BARABOO/DELLS  PTCLDY    62  58  88 CALM      29.87S
LONE ROCK      NOT AVBL
MINERAL POINT  CLOUDY    70  59  68 E5        29.86F
MADISON        CLOUDY    62  58  86 N3        29.85F
MIDDLETON      CLOUDY    62  58  85 CALM      29.87S
WATERTOWN      CLOUDY    62  61  98 CALM      29.86S
MONROE         CLOUDY    68  55  64 NE6       29.84F
JANESVILLE     CLOUDY    64  63  94 CALM      29.85F
$$

WIZ051-052-058>065-066-070>072-270800-
SOUTHEAST WISCONSIN

CITY           SKY/WX    TMP DP  RH WIND       PRES   REMARKS
MILWAUKEE      CLOUDY    67  61  81 SE3       29.86S
WAUKESHA       CLOUDY    61  55  82 CALM      29.89R
MILWAUKEE/TIMM CLOUDY    64  55  72 CALM      29.88R
RACINE         CLOUDY    66  60  81 CALM      29.88S
BURLINGTON     CLOUDY    62  60  94 CALM      29.87S
KENOSHA        CLOUDY    68  61  78 S5        29.87S
FOND DU LAC    CLOUDY    61  58  90 CALM      29.87S
SHEBOYGAN      CLOUDY    59  57  93 CALM      29.87S
WEST BEND      PTCLDY    61  59  94 CALM      29.88S
JUNEAU         PTCLDY    64  62  91 CALM      29.89R
$$

LSZ147-162-270800-
LAKE SUPERIOR

STATION/POSITION TIME  TEMP    WIND        PRES    WAVE
                       AIR SEA DIR/SP/G            HT/PER
                 (UTC) (F)     (DEG/KT/KT) (MB)    (FT/S)
W MID LAKE BUOY  0550   40 38  290/  4/  4 1011.1R   1/ 5
DEVILS ISLAND    0600   45        CALM     1011.3R
SAXON HARBOR     0600   49     360/  2/  2 1010.8
$$

LMZ867-665-643>646-270800-
LAKE MICHIGAN

STATION/POSITION TIME  TEMP    WIND        PRES    WAVE
                       AIR SEA DIR/SP/G            HT/PER
                 (UTC) (F)     (DEG/KT/KT) (MB)    (FT/S)
CHAMBERS ISLAND  0600   56      CALM  /  1 1011.2R
N MID LAKE BUOY  0550   47 45  120/  6/  6 1011.5F   2/ 5
NORTHPORT PIER   0600   53     140/  6/  6 1011.2S
SISTER BAY       0520   62     170/  7/  9   N/A
ALGOMA LAKESHORE 0602             CALM       N/A
KEWAUNEE LAKESHO 0600                      1010.5F
SHEBOYGAN LAKESH 0600   64     240/  4/  4 1011.6F
PORT WASHINGTON  0640   59      CALM  /  3 1012.2S
S MID LAKE BUOY  0550   58 50  150/ 10/ 10 1011.5S   0
KENOSHA   LAKESH 0600   62     170/  8/  9 1011.2F
$$

TC  - TEMPERATURE IN CELSIUS
VSB - VISIBILITY IN STATUTE MILES
WCI - WIND CHILL INDEX
HX  - HEAT INDEX




USA.gov is the U.S. government's official web portal to all federal, state and local government web resources and services.